Location: Bright Skies Observatory
(38.9689°N, 77.0681°W)
Time: 17:29:31
(UTC-04:00)

Daily predictions for brighter satellites

Satellite Brightness Start Highest point End
(mag) Time Altitude Azimuth Time Altitude Azimuth Time Altitude Azimuth
Cosmos 1869 Rocket 3.6 20:15:37 10° N 20:20:06 71° E 20:24:32 10° SSE
USA 186 2.7 20:18:28 10° SE 20:20:47 25° ENE 20:23:14 10° NNE
BREEZE-M DEB (TANK) 4.0 20:18:17 10° W 20:20:56 40° N 20:26:22 10° ENE
FREGAT/IRIS 4.4 20:19:38 10° SSW 20:22:26 35° W 20:25:15 10° NNW
ATLAS 5 CENTAUR R/B 3.8 20:19:29 10° N 20:24:07 23° NE 20:29:01 10° E
Helios 1A 4.1 20:20:53 10° SE 20:24:30 28° ENE 20:28:07 10° N
SL-16 R/B 2.4 20:20:15 10° S 20:25:38 47° ESE 20:31:03 10° NE
USA 267 3.8 20:19:33 10° NE 20:26:03 67° NW 20:32:31 10° WSW
Resurs 1-3 3.7 20:21:58 10° SSE 20:26:16 61° ENE 20:30:37 10° N
Cosmos 1315 Rocket 2.8 20:23:40 10° N 20:27:44 74° E 20:31:44 10° SSE
CZ-2D R/B 3.3 20:26:24 10° SSE 20:30:15 62° ENE 20:34:06 10° N
Cosmos 1503 Rocket 4.3 20:28:15 10° N 20:33:20 48° ENE 20:38:20 10° SE
Spot 2 Rocket 3.5 20:31:24 10° SSE 20:36:29 84° ENE 20:41:35 10° NNW
Cosmos 1408 3.2 20:35:01 10° N 20:38:29 37° E 20:41:53 10° SSE
Cosmos 1354 Rocket 4.2 20:33:24 10° N 20:38:35 54° ENE 20:43:43 10° SE
Cosmos 2242 Rocket 3.8 20:37:41 10° S 20:42:05 53° E 20:46:27 10° NNE
Cosmos 2195 Rocket 4.5 20:38:53 10° N 20:44:59 66° E 20:51:04 10° SSE
Cosmos 2279 Rocket 4.3 20:40:19 10° SSE 20:46:15 48° E 20:52:10 10° NNE
ALOS 3.9 20:42:38 10° SSW 20:46:54 36° W 20:51:13 10° NNW
Milstar 3 3.8 20:42:52 10° WSW 20:50:45 36° S 20:55:56 14° SE
Cosmos 1862 3.8 20:50:03 10° N 20:53:52 40° ENE 20:57:02 14° SE
Cosmos 220 Rocket 4.0 20:49:42 10° NNW 20:54:11 85° ENE 20:58:37 10° SSE
Meteor 1-29 3.2 20:52:41 10° NNE 20:56:03 44° E 20:59:20 10° S
Envisat 3.2 20:51:37 10° SSE 20:56:33 55° ENE 21:01:31 10° N
ATLAS CENTAUR R/B 4.1 20:56:44 10° W 20:59:18 21° SW 21:04:06 10° S
USA 234 3.7 20:53:53 13° ESE 20:59:31 53° NE 21:05:49 10° NW
Resurs 01 Rocket 2.8 20:58:01 10° S 21:02:15 44° W 21:06:32 10° NNW
Intercosmos 25 Rocket 2.9 21:00:29 10° S 21:03:37 83° E 21:07:34 10° N
Cosmos 1939 Rocket 3.0 21:05:54 17° SSE 21:08:54 57° ENE 21:12:50 10° N
OAO 3 Rocket 3.5 21:05:37 10° W 21:10:23 54° S 21:13:18 23° ESE
SEDSat Delta rocket 4.2 21:06:27 10° WSW 21:11:14 37° S 21:14:20 22° ESE
YAOGAN 6 3.5 21:10:21 24° ESE 21:11:40 32° ENE 21:14:55 10° N
Helios 1B rocket 2.6 21:11:58 10° N 21:16:05 76° WNW 21:20:09 10° SSW
Lacrosse 4 Rocket 1.8 21:12:19 10° NNW 21:16:37 65° WSW 21:19:57 17° SSE
Meteor 2-10 Rocket 3.9 21:15:21 10° S 21:20:58 54° E 21:26:36 10° NNE
Atlas Centaur 2 3.3 21:15:02 10° SW 21:21:21 40° SSE 21:25:41 23° ESE
Sich 1 Rocket 4.2 21:18:28 10° N 21:22:40 39° ENE 21:24:14 29° ESE
ERBS 4.2 21:21:28 10° WNW 21:24:20 24° SW 21:26:20 15° S
ERS-1 Rocket 3.3 21:22:06 25° SE 21:24:41 48° ENE 21:29:30 10° N
Cosmos 1908 Rocket 4.0 21:21:47 10° N 21:25:55 41° E 21:27:14 32° ESE
Cosmos 2026 Rocket 4.5 21:25:12 10° NNW 21:31:19 60° W 21:37:18 10° S
SeaSat 1 3.8 21:31:07 21° E 21:32:47 25° NE 21:36:45 10° N
Cosmos 2263 Rocket 2.1 21:27:42 10° NNW 21:33:18 87° WSW 21:36:40 25° SSE
CZ-4B DEB 4.0 21:38:38 21° SSW 21:40:08 36° W 21:42:59 10° NNW
Cosmos 1782 Rocket 4.2 21:36:12 10° NNE 21:40:13 34° ENE 21:40:33 34° E
Cosmos 2322 Rocket 3.6 21:35:14 10° SW 21:40:28 40° WNW 21:45:45 10° N
USA 229 DEB 3.6 21:36:16 10° SSW 21:42:58 64° ESE 21:49:48 10° NE
USA 229 3.6 21:36:23 10° SSW 21:43:05 64° ESE 21:49:54 10° NE
COSMOS 2428 3.2 21:43:30 35° SE 21:44:22 37° ESE 21:49:33 10° NE
Cosmos 1733 Rocket 4.0 21:40:21 10° NNW 21:44:38 47° W 21:48:10 14° SSW
Meteor 1-14 Rocket 4.4 21:40:31 10° N 21:46:06 56° ENE 21:48:11 37° SE
Okean 2 Rocket 4.0 21:45:13 10° NNE 21:49:13 32° ENE 21:49:13 32° ENE
Cosmos 2360 Rocket 2.2 21:43:40 10° SSW 21:49:19 86° WNW 21:55:02 10° NNE
Cosmos 1825 4.5 21:48:34 10° NW 21:51:34 22° W 21:54:34 10° SW
Okean 1-7 3.2 21:56:12 51° E 21:56:12 51° E 22:00:24 10° NNE
NOAA 11 4.1 21:58:33 43° SSE 22:00:23 75° ENE 22:05:53 10° N
MetOp-B 4.0 22:00:03 46° SE 22:01:38 74° ENE 22:06:59 10° N
Cosmos 2322 3.8 21:56:24 10° SSW 22:02:07 80° WNW 22:07:51 10° NNE
SPOT 5 2.9 22:02:04 53° ESE 22:02:41 58° ENE 22:07:16 10° N
Meteor 1-20 Rocket 4.3 22:03:48 10° N 22:09:17 57° ENE 22:10:06 52° ESE
ATLAS 5 CENTAUR R/B 2.5 22:03:19 10° NW 22:09:25 78° WSW 22:11:35 44° SSE
SL-16 R/B 4.5 22:05:24 10° WSW 22:09:58 25° NW 22:14:34 10° N
Nimbus 7 Rocket 4.4 22:04:32 10° NNE 22:10:25 59° ESE 22:11:42 49° SSE
Cosmos 1703 Rocket 3.8 22:10:27 41° SSW 22:11:54 67° W 22:16:19 10° N
ARGOS 3.0 22:15:14 60° SE 22:16:10 77° ENE 22:21:32 10° N
Cosmos 2266 Rocket 4.1 22:13:39 10° N 22:19:56 74° W 22:22:35 37° S
YAOGAN 11 4.2 22:23:44 65° WSW 22:23:55 65° WSW 22:28:14 10° NNW
Cosmos 2333 4.1 22:23:21 63° SSE 22:24:09 73° ESE 22:29:55 10° NNE
Cosmos 2333 Rocket 3.5 22:26:29 27° ENE 22:26:29 27° ENE 22:29:31 10° NE
Cosmos 2237 Rocket 4.0 22:29:25 17° ENE 22:29:25 17° ENE 22:31:02 10° NE
Cosmos 968 Rocket 4.1 22:21:40 10° NNW 22:26:42 50° WSW 22:27:53 42° SW
Cosmos 2221 Rocket 3.9 22:26:56 57° WSW 22:27:24 61° W 22:31:47 10° N
H-2A R/B 2.1 22:31:00 62° NE 22:31:00 62° NE 22:35:36 10° N
Cosmos 1867 3.9 22:25:43 10° NW 22:31:04 56° WSW 22:31:43 52° SW
Cosmos 2278 Rocket 3.5 22:26:58 10° N 22:31:41 26° ENE 22:31:49 26° ENE
SL-08 RB Rocket 3.8 22:35:33 74° NW 22:35:33 74° NW 22:39:44 10° NNW
Cosmos 1844 Rocket 2.7 22:30:15 10° NNW 22:35:48 66° ENE 22:35:49 66° ENE
Cosmos 1782 4.1 22:42:04 37° N 22:42:04 37° N 22:44:34 10° N
Landsat 7 4.3 22:41:57 52° NNE 22:41:57 52° NNE 22:45:47 10° N
USA 234 3.8 22:41:13 40° SSW 22:42:32 45° SW 22:48:45 10° WNW
Cosmos 1244 Rocket 4.3 22:38:01 10° N 22:44:18 81° E 22:44:46 75° SE
CZ-4C R/B 3.6 22:43:37 10° NNW 22:50:15 40° NE 22:51:55 36° ENE
Cosmos 1553 Rocket 4.1 22:52:37 62° ENE 22:52:37 62° ENE 22:58:19 10° NNE
Cosmos 2219 Rocket 2.4 22:54:47 60° NE 22:54:47 60° NE 22:59:22 10° NNE
H-2A R/B 3.4 22:57:29 36° N 22:57:29 36° N 23:00:08 10° N
Terra 2.7 22:57:32 43° NNE 22:57:32 43° NNE 23:00:55 10° N
Meteor 1-27 Rocket 4.1 22:59:53 53° NE 22:59:53 53° NE 23:04:14 10° NNE
SeaSat 1 3.5 23:10:54 40° W 23:10:54 40° W 23:14:46 10° NW
Atlas Centaur 2 3.7 23:03:22 10° WSW 23:08:19 37° SW 23:08:19 37° SW
S3M 4.1 23:22:42 72° NNW 23:22:42 72° NNW 23:28:22 10° N
Meteor 1-11 Rocket 4.2 23:19:02 10° N 23:23:21 56° NNW 23:23:21 56° NNW
COSMOS 2428 4.3 23:25:21 18° WSW 23:28:39 30° WNW 23:33:39 10° N
NOSS 3-1 (C) 3.8 23:28:28 55° WNW 23:28:56 57° NW 23:35:17 10° NNE
NOSS 3-1 (A) 3.9 23:45:11 56° NNW 23:45:11 56° NNW 23:50:51 10° NNE
ATLAS 2AS CENTAUR R/B 4.2 23:48:54 28° ENE 23:48:54 28° ENE 23:53:01 10° NE
SL-16 R/B 3.9 23:50:52 24° NE 23:50:52 24° NE 23:53:04 10° NNE
